COSMOS 2432 (719) (32276 NORAD) Tracking and Keplerian Element Data

This shows tracking and keplerian element data for the satellite.

Feedback or suggestion? Click here.




ElementValue
Catalog32276
NameCOSMOS 2432 (719)
Epoch Orbit13446
Epoch Day34.77464613
Epoch Year2025
RAAN332.7765
Inclination65.8548
Eccentricity0.0011701
Argument of Perigee324.0602
Mean Anonmoly143.4711
Mean Motion2.13103076
Decay Rate-6.3E-07
L11 32276U 07052B 25034.77464613 -.00000063 00000+0 00000+0 0 9994
L22 32276 65.8548 332.7765 0011701 324.0602 143.4711 2.13103076134460



Live tracking and technical data element details for COSMOS 2432 (719) (NORAD 32276). COSMOS 2432 (719) can be tracked NOW for your location showing map with azimuth and elevation plus other details from your city location.







IsCatalogInMostPopularTable: catalog: 32276, numindb: 424
Update: records affected: 1



GetName: 32276 COSMOS 2432 (719)

Hit Count: updated at: Thu, 15 May 2025 09:15:34 GMT